sat.trackr.live / text

‹ back to catalog

STARLINK-35786

NORAD 67040 · 2025-294L

PAYLOAD ACTIVE UNKNOWN

§ Identity

Operator
Country
US
Launch date
2025-12-11
Launch site
AFETR
Launch vehicle
Mass (kg)
RCS (m²)

Purposes: comms

External: N2YO · Heavens-Above · Gunter

§ Orbital elements

Epoch: 2026-09-20T14:03:49.416768Z

Period
94.27 min
Inclination
43.0051°
Eccentricity
0.0004004
Mean motion
15.27582075 rev/d
Perigee alt
480.3 km
Apogee alt
485.8 km
Semi-major
6,861.2 km
B*
4.2728e-5
RAAN
17.6170°
Arg perigee
275.6795°
Mean anomaly
84.3600°
Rev number
4,460

§ Raw data

STARLINK-357861 67040U 25294L   26263.58598862  .00000913  00000+0  42728-4 0  99982 67040  43.0051  17.6170 0004004 275.6795  84.3600 15.27582075 44600

JSON: /api/v1/satellites/67040 · /tle

For live sub-satellite position, see the globe view (requires WebGL).

§ Visibility from observer

Set your observer location to see the next 7 days of passes ≥ 10°. The values pass through the URL so the page stays shareable.

No JS? Fill the form by hand. The geolocation button needs JavaScript.